Weather History for Forrest, WE

Change the Weather History Date:

Monday, December 31, 2012

  Actual Average Record
Temperature  
Mean Temperature 88 °F -  
Max Temperature 109 °F - - ()
Min Temperature 66 °F - - ()
Cooling Degree Days 22    
Growing Degree Days 38 (Base 50)    
Moisture  
Dew Point 30 °F    
Average Humidity 16    
Maximum Humidity 52    
Minimum Humidity 4    
Precipitation  
Precipitation 0.00 in - - ()
Sea Level Pressure  
Sea Level Pressure 29.89 in    
Wind  
Wind Speed 9 mph ()    
Max Wind Speed 17 mph    
Max Gust Speed 22 mph    
T = Trace of Precipitation, MM = Missing Value Source: Averaged Metar Reports

Daily Weather History Graph

Daily Weather History Graph

Search for Another Location

Airport:

Trip Planner

Search our weather history database for the weather conditions in past years. The results will help you decide how hot, cold, wet, or windy it might be!

Date:

Astronomy

Dec. 31, 2012 Rise Set
Actual Time 4:27 AM AWST 6:33 PM AWST
Civil Twilight 3:59 AM AWST 7:01 PM AWST
Nautical Twilight 3:25 AM AWST 7:35 PM AWST
Astronomical Twilight 2:49 AM AWST 8:11 PM AWST
Moon 8:17 PM AWST (12/31) 6:49 AM AWST (12/31)
Length of Visible Light 15h 02m
Length of Day
14h 06m
Waning Gibbous, 93% of the Moon is Illuminated
Dec 31
Waning Gibbous
Jan 5
Last Quarter
Jan 12
New
Jan 19
First Quarter
Jan 27
Full

Hourly Weather History & Observations

Time (AWST) Temp. Dew Point Humidity Pressure Visibility Wind Dir Wind Speed Gust Speed Precip Events Conditions
12:00 AM 75 °F 45 °F 24% 29.95 in - SE 8.1 mph - -  
12:00 AM 75.2 °F 44.6 °F 34% 29.95 in - SE 8.1 mph - N/A   Unknown
1:00 AM 73.4 °F 44.6 °F 36% 29.95 in - SE 8.1 mph - N/A   Unknown
2:00 AM 72 °F 44 °F 26% 29.94 in - SSE 8.1 mph - -  
2:00 AM 73.4 °F 44.6 °F 36% 29.95 in - SSE 8.1 mph - N/A   Unknown
3:00 AM 71 °F 45 °F 28% 29.93 in - South 9.2 mph - -  
3:00 AM 71.6 °F 44.6 °F 38% 29.95 in - South 9.2 mph - N/A   Unknown
4:00 AM 68.0 °F 44.6 °F 43% 29.95 in - SSE 8.1 mph - N/A   Unknown
5:00 AM 67 °F 47 °F 38% 29.94 in - SSE 8.1 mph - -  
5:00 AM 66.2 °F 48.2 °F 52% 29.95 in - SSE 8.1 mph - N/A   Unknown
6:00 AM 75 °F 48 °F 27% 29.95 in - SE 11.5 mph - -  
6:00 AM 75.2 °F 48.2 °F 38% 29.95 in - SE 11.5 mph - N/A   Unknown
7:00 AM 82.4 °F 44.6 °F 26% 29.95 in - East 16.1 mph - N/A   Unknown
8:00 AM 90 °F 36 °F 8% 29.94 in - NE 15.0 mph - -  
8:00 AM 91.4 °F 37.4 °F 15% 29.95 in - NE 15.0 mph - N/A   Unknown
9:00 AM 97 °F 26 °F 4% 29.92 in - NNE 15.0 mph - -  
9:00 AM 96.8 °F 26.6 °F 8% 29.92 in - NNE 15.0 mph - N/A   Unknown
10:00 AM 100.4 °F 21.2 °F 6% 29.92 in - North 17.3 mph - N/A   Unknown
11:00 AM 104 °F 20 °F 4% 29.89 in - NNE 10.4 mph - -  
11:00 AM 104.0 °F 19.4 °F 5% 29.89 in - NNE 10.4 mph 21.9 mph N/A   Unknown
12:00 PM 104 °F 15 °F 4% 29.88 in - WNW 6.9 mph - -  
12:00 PM 104.0 °F 14.0 °F 4% 29.89 in - WNW 6.9 mph - N/A   Unknown
1:00 PM 105.8 °F 15.8 °F 4% 29.86 in - North 12.7 mph - N/A   Unknown
2:00 PM 106 °F 16 °F 4% 29.84 in - NNE 11.5 mph - -  
2:00 PM 105.8 °F 15.8 °F 4% 29.86 in - NNE 11.5 mph - N/A   Unknown
3:00 PM 107 °F 16 °F 4% 29.82 in - NNE 6.9 mph - -  
3:00 PM 105.8 °F 15.8 °F 4% 29.83 in - NNE 6.9 mph - N/A   Unknown
4:00 PM 105.8 °F 15.8 °F 4% 29.83 in - NNE 8.1 mph - N/A   Unknown
5:00 PM 105 °F 15 °F 4% 29.82 in - ENE 6.9 mph - -  
5:00 PM 105.8 °F 15.8 °F 4% 29.83 in - ENE 6.9 mph - N/A   Unknown
6:00 PM 103 °F 14 °F 4% 29.82 in - North 6.9 mph - -  
6:00 PM 102.2 °F 14.0 °F 4% 29.83 in - North 6.9 mph - N/A   Unknown
6:54 PM 93.2 °F 15.8 °F 6% 29.83 in - NE 4.6 mph - N/A   Unknown
7:00 PM 93.2 °F 15.8 °F 6% 29.83 in - NNE 6.9 mph - N/A   Unknown
7:21 PM 95.0 °F 26.6 °F 9% 29.86 in - SE 17.3 mph - N/A   Unknown
8:00 PM 90 °F 29 °F 5% 29.87 in - ESE 17.3 mph - -  
8:00 PM 89.6 °F 28.4 °F 11% 29.89 in - ESE 17.3 mph - N/A   Unknown
9:00 PM 85 °F 33 °F 8% 29.88 in - SE 12.7 mph - -  
9:00 PM 86.0 °F 32.0 °F 14% 29.89 in - SE 12.7 mph - N/A   Unknown
10:00 PM 82.4 °F 33.8 °F 17% 29.89 in - ESE 13.8 mph - N/A   Unknown
11:00 PM 78 °F 36 °F 13% 29.88 in - ESE 12.7 mph - -  
11:00 PM 78.8 °F 35.6 °F 21% 29.89 in - ESE 12.7 mph - N/A   Unknown